User: anonymous   Login
Location: Wells
(51.2093°N, 2.6446°W)
Time: 17:28:20
(UTC+00:00)
Language:

YUBILEINY - Orbit

View from above orbital plane
View from above orbital plane
View from above satellite
View from above satellite

Ground track
Ground track

The orbit is defined by the following mean orbital elements,

1 32953U          26073.21465097 +.00000000 +00000-0 -16450-4 0 00008
2 32953  82.5007  54.5070 0019680 155.4434 204.7587 12.43175939    04
Epoch (UTC): 14 March 2026 05:09:05
Eccentricity: 0.0019680
inclination: 82.5007°
perigee height: 1478 km
apogee height: 1509 km
right ascension of ascending node: 54.5070°
argument of perigee: 155.4434°
revolutions per day: 12.43175939
mean anomaly at epoch: 204.7587°

The dashed part of the orbit path shows where the satellite is in the earth's shadow,  

DLR